Location: ??????
(33.3472°N, 35.4764°E)
Time: 04:00:54
(UTC+00:00)

Cosmos 1464 Rocket - Pass Details

Date: 21 August 2019
Orbit: 953 x 1000 km, 82.9° (Epoch: 14 October)

Event Time Altitude Azimuth Distance (km) Brightness Sun altitude
Rises 01:55:57 0° 353° (N) 3,669 7.3 -14.2°
Reaches altitude 10° 01:58:27 10° 353° (N) 2,725 6.6 -13.8°
Maximum altitude 02:04:43 86° 265° (W) 990 4.0 -12.6°
Drops below altitude 10° 02:11:01 10° 178° (S) 2,742 6.2 -11.4°
Sets 02:13:32 0° 177° (S) 3,693 6.8 -10.9°
